Terminal Aerodrome Forecast
Issued by NWS Milwaukee/Sullivan, WI

Home | Current Version | Previous Version | Text Only | Print | Product List | Glossary On
Versions: 1 2 3 4 5 6 7 8 9 10 11 12 13 14 15 16 17 18 19 20 21 22 23 24 25 26 27 28 29 30 31 32 33 34 35 36 37 38 39 40 41 42 43 44 45 46 47 48 49 50
000
FTUS43 KMKX 311128
TAFMKE
TAF
KMKE 311128Z 3112/0118 25007KT P6SM SCT050 BKN100
     FM311300 25008KT P6SM SCT100
     FM311600 25009KT P6SM SCT040
     FM311800 26010G16KT P6SM SCT040
      TEMPO 3119/3122 12007KT BKN050
     FM312200 14007KT P6SM SCT050
     FM010200 21006KT P6SM FEW050 SCT100=

USA.gov is the U.S. government's official web portal to all federal, state and local government web resources and services.